sat.trackr.live / text

‹ back to catalog

STARLINK-31829

NORAD 59770 · 2024-091T

PAYLOAD ACTIVE UNKNOWN

§ Identity

Operator
Country
US
Launch date
2024-05-14
Launch site
AFWTR
Launch vehicle
Mass (kg)
RCS (m²)

Purposes: comms

External: N2YO · Heavens-Above · Gunter

§ Orbital elements

Epoch: 2026-05-25T02:33:05.543424Z

Period
94.11 min
Inclination
53.1612°
Eccentricity
0.0001169
Mean motion
15.30193967 rev/d
Perigee alt
474.4 km
Apogee alt
476.0 km
Semi-major
6,853.4 km
B*
3.9451e-5
RAAN
31.9746°
Arg perigee
70.5988°
Mean anomaly
289.5139°
Rev number
11,470

§ Raw data

STARLINK-318291 59770U 24091T   26145.10631416  .00000809  00000+0  39451-4 0  99962 59770  53.1612  31.9746 0001169  70.5988 289.5139 15.30193967114706

JSON: /api/v1/satellites/59770 · /tle

For live sub-satellite position, see the globe view (requires WebGL).

§ Visibility from observer

Set your observer location to see the next 7 days of passes ≥ 10°. The values pass through the URL so the page stays shareable.

No JS? Fill the form by hand. The geolocation button needs JavaScript.